Location: Artiguedieu
(43.5000°N, 0.5454°E)
Time: 10:14:20
(UTC+00:00)

Vanguard 1 Rocket - Pass Details

Date: 01 August 2021
Orbit: 650 x 4226 km, 34.3° (Epoch: 24 September)

Event Time Altitude Azimuth Distance (km) Brightness Sun altitude
Rises 14:11:10 0° 271° (W) 6,131 12.1 53.0°
Reaches altitude 10° 14:16:19 10° 265° (W) 4,493 11.7 52.2°
Maximum altitude 14:25:50 35° 205° (SSW) 1,928 10.3 50.7°
Drops below altitude 10° 14:31:26 10° 140° (SE) 2,617 9.8 49.8°
Sets 14:33:39 0° 130° (SE) 3,335 10.2 49.4°
